一网星座-0719星 (ONEWEB-0719)

导读 | 豆包AI

ONEWEB-0719是英国主导的OneWeb低轨宽带卫星星座中的卫星,于2023年1月10日发射入轨。OneWeb星座规划建成覆盖全球的低轨卫星通信网络,提供无缝高速宽带服务,一期已完成600余颗卫星部署,实现全球商业化运营。这颗卫星补充完善了星座组网,助力OneWeb实现全球泛在互联服务,推动卫星互联网全球化覆盖,提升偏远地区及移动场景下通信连接能力。

Basic Information
目录编号:
55179
目录名称:
ONEWEB-0719
国际标识:
2023-004AR
轨道中心:
EARTH
卫星名称:
一网星座-0719星
卫星全名:
一网星座-0719星 (ONEWEB-0719)
卫星状态:
在轨 (已飞行1208 天)
发射日期:
2023-01-10 UTC
国别 :
英国 (GB)
星等 :
--
Orbit Information
数据来源 国际轨道数据 AOE轨道数据
星历时间 2026-05-02T12:09:04+0800
7小时前
查看轨道信息
2026-04-29T21:00:00+0800
2天前
查看轨道信息
半长轴 7571.85km 7571.846km
偏心率 0.0002004 0.0002086
轨道倾角 87.919° 87.920°
近地点辐角 81.505° 79.383°
升交点赤经 14.978° 15.501°
平近点角 278.631° 46.244°
近地点 1192.195km 1192.129km
远地点 1195.231km 1195.289km
周期 109.286分钟 109.285分钟
每日圈数 13.176491 13.176502
Detailed Information
平衡模式:
三轴稳定
覆盖范围:
全球
运营商:
一网卫星公司
运营商所在国:
英国
制造商(研发单位):
一网卫星公司
制造商所在国:
英国
使用方式:
暂无
Satellite Introduction
OneWeb卫星网络由648颗重约125公斤的微型卫星组成,运行在1200公里的轨道上。 每颗卫星都能够提供至少每秒8千兆位的吞吐量,以使用其高吞吐量的Ku频段有效载荷为家庭和移动平台提供互联网接入。该卫星仍在工作。
2D Orbit Map
3D Orbit Map
Orbit Altitude Analysis Chart
Orbit Inclination Analysis Chart
Orbit Comprehensive Analysis Chart
View Comprehensive Chart